• In Hungary
  • List of Countries
  • For 7 days
  • Water Temperature
  • Satellite Maps
  • Weather Map
  • News
  • Weather Widgets
  • user-avatar
    Login

    Hourly Weather Novokadamovo

    Today, 20 August, Monday

    Time Temperature Precipitation Wind Pressure Humidity
    00:00 +18°C° 0 mm 3 mps 753 mmHg 38%
    01:00 +18°C° 0 mm 3 mps 753 mmHg 40%
    02:00 +17°C° 0 mm 3 mps 753 mmHg 42%
    03:00 +15°C° 0 mm 1 mps 753 mmHg 47%
    04:00 +15°C° 0 mm 2 mps 754 mmHg 48%
    05:00 +15°C° 0 mm 2 mps 754 mmHg 48%
    06:00 +15°C° 0 mm 2 mps 754 mmHg 49%
    07:00 +18°C° 0 mm 3 mps 754 mmHg 43%
    08:00 +21°C° 0 mm 4 mps 754 mmHg 37%
    09:00 +23°C° 0 mm 4 mps 754 mmHg 30%
    10:00 +26°C° 0 mm 5 mps 754 mmHg 27%
    11:00 +27°C° 0 mm 5 mps 753 mmHg 24%
    12:00 +28°C° 0 mm 5 mps 753 mmHg 21%
    13:00 +29°C° 0 mm 5 mps 753 mmHg 20%
    14:00 +30°C° 0 mm 5 mps 753 mmHg 19%
    15:00 +30°C° 0 mm 5 mps 752 mmHg 18%
    16:00 +30°C° 0 mm 4 mps 752 mmHg 19%
    17:00 +29°C° 0 mm 4 mps 752 mmHg 20%
    18:00 +28°C° 0 mm 4 mps 752 mmHg 22%
    19:00 +26°C° 0 mm 4 mps 752 mmHg 24%
    20:00 +24°C° 0 mm 3 mps 752 mmHg 27%
    21:00 +21°C° 0 mm 3 mps 752 mmHg 30%
    22:00 +20°C° 0 mm 3 mps 752 mmHg 31%
    23:00 +20°C° 0 mm 3 mps 752 mmHg 32%

    Tomorrow, 21 August, Tuesday

    Time Temperature Precipitation Wind Pressure Humidity
    00:00 +19°C° 0 mm 2 mps 752 mmHg 33%
    01:00 +19°C° 0 mm 2 mps 752 mmHg 34%
    02:00 +18°C° 0 mm 2 mps 751 mmHg 34%
    03:00 +18°C° 0 mm 2 mps 751 mmHg 35%
    04:00 +17°C° 0 mm 2 mps 751 mmHg 36%
    05:00 +17°C° 0 mm 2 mps 751 mmHg 36%
    06:00 +17°C° 0 mm 2 mps 751 mmHg 37%
    07:00 +20°C° 0 mm 3 mps 751 mmHg 34%
    08:00 +22°C° 0 mm 3 mps 751 mmHg 31%
    09:00 +26°C° 0 mm 3 mps 751 mmHg 27%
    10:00 +27°C° 0 mm 4 mps 751 mmHg 25%
    11:00 +29°C° 0 mm 4 mps 751 mmHg 23%
    12:00 +30°C° 0 mm 4 mps 751 mmHg 21%
    13:00 +32°C° 0 mm 4 mps 750 mmHg 20%
    14:00 +33°C° 0 mm 4 mps 750 mmHg 19%
    15:00 +33°C° 0 mm 4 mps 749 mmHg 18%
    16:00 +33°C° 0 mm 4 mps 749 mmHg 19%
    17:00 +31°C° 0 mm 3 mps 749 mmHg 19%
    18:00 +31°C° 0 mm 3 mps 749 mmHg 20%
    19:00 +29°C° 0 mm 3 mps 749 mmHg 23%
    20:00 +26°C° 0 mm 2 mps 749 mmHg 25%
    21:00 +24°C° 0 mm 2 mps 749 mmHg 27%
    22:00 +23°C° 0 mm 2 mps 749 mmHg 28%
    23:00 +23°C° 0 mm 1 mps 749 mmHg 29%

    Day after tomorrow, 22 August, Wednesday

    Time Temperature Precipitation Wind Pressure Humidity
    00:00 +22°C° 0 mm 1 mps 749 mmHg 30%
    01:00 +22°C° 0 mm 1 mps 749 mmHg 32%
    02:00 +21°C° 0 mm 1 mps 749 mmHg 33%
    03:00 +21°C° 0 mm 1 mps 749 mmHg 35%
    04:00 +21°C° 0 mm 1 mps 749 mmHg 37%
    05:00 +21°C° 0 mm 1 mps 749 mmHg 40%
    06:00 +20°C° 0 mm 1 mps 749 mmHg 43%
    07:00 +23°C° 0 mm 1 mps 749 mmHg 39%
    08:00 +26°C° 0 mm 1 mps 749 mmHg 35%
    09:00 +28°C° 0 mm 1 mps 749 mmHg 31%
    10:00 +30°C° 0 mm 2 mps 749 mmHg 27%
    11:00 +31°C° 0 mm 2 mps 749 mmHg 23%
    12:00 +34°C° 0 mm 2 mps 749 mmHg 20%
    13:00 +34°C° 0 mm 3 mps 748 mmHg 20%
    14:00 +35°C° 0 mm 3 mps 748 mmHg 20%
    15:00 +35°C° 0 mm 4 mps 748 mmHg 20%
    16:00 +34°C° 0 mm 4 mps 748 mmHg 25%
    17:00 +33°C° 0 mm 5 mps 748 mmHg 31%
    18:00 +32°C° 0 mm 6 mps 749 mmHg 36%
    19:00 +29°C° 0 mm 6 mps 749 mmHg 41%
    20:00 +27°C° 0 mm 6 mps 750 mmHg 46%
    21:00 +26°C° 0 mm 6 mps 750 mmHg 51%
    22:00 +24°C° 0 mm 6 mps 751 mmHg 50%
    23:00 +23°C° 0 mm 6 mps 751 mmHg 49%

    23 August, Thursday

    Time Temperature Precipitation Wind Pressure Humidity
    00:00 +22°C° 0 mm 5 mps 751 mmHg 48%
    01:00 +21°C° 0 mm 5 mps 752 mmHg 48%
    02:00 +20°C° 0 mm 5 mps 752 mmHg 49%
    03:00 +19°C° 0 mm 5 mps 752 mmHg 49%
    04:00 +19°C° 0 mm 4 mps 752 mmHg 50%
    05:00 +18°C° 0 mm 4 mps 753 mmHg 51%
    06:00 +17°C° 0 mm 4 mps 753 mmHg 52%
    07:00 +19°C° 0 mm 5 mps 753 mmHg 46%
    08:00 +21°C° 0 mm 5 mps 753 mmHg 40%
    09:00 +23°C° 0 mm 6 mps 754 mmHg 35%
    10:00 +24°C° 0 mm 6 mps 754 mmHg 31%
    11:00 +26°C° 0 mm 6 mps 754 mmHg 27%
    12:00 +27°C° 0 mm 6 mps 754 mmHg 24%
    13:00 +28°C° 0 mm 6 mps 753 mmHg 22%
    14:00 +28°C° 0 mm 6 mps 753 mmHg 21%
    15:00 +29°C° 0 mm 5 mps 753 mmHg 19%
    16:00 +28°C° 0 mm 5 mps 753 mmHg 21%
    17:00 +28°C° 0 mm 5 mps 753 mmHg 22%
    18:00 +27°C° 0 mm 5 mps 753 mmHg 23%
    19:00 +25°C° 0 mm 5 mps 753 mmHg 26%
    20:00 +22°C° 0 mm 4 mps 753 mmHg 30%
    21:00 +21°C° 0 mm 4 mps 754 mmHg 33%
    22:00 +20°C° 0 mm 4 mps 754 mmHg 35%
    23:00 +20°C° 0 mm 5 mps 754 mmHg 36%

    24 August, Friday

    Time Temperature Precipitation Wind Pressure Humidity
    00:00 +19°C° 0 mm 5 mps 754 mmHg 38%
    01:00 +19°C° 0 mm 5 mps 754 mmHg 39%
    02:00 +17°C° 0 mm 5 mps 754 mmHg 40%
    03:00 +17°C° 0 mm 5 mps 754 mmHg 42%
    04:00 +16°C° 0 mm 5 mps 754 mmHg 43%
    05:00 +17°C° 0 mm 4 mps 754 mmHg 45%
    06:00 +15°C° 0 mm 4 mps 754 mmHg 46%
    07:00 +19°C° 0 mm 5 mps 754 mmHg 41%
    08:00 +21°C° 0 mm 6 mps 754 mmHg 35%
    09:00 +23°C° 0 mm 6 mps 754 mmHg 30%
    10:00 +26°C° 0 mm 6 mps 754 mmHg 28%
    11:00 +27°C° 0 mm 6 mps 754 mmHg 25%
    12:00 +28°C° 0 mm 6 mps 754 mmHg 23%
    13:00 +29°C° 0 mm 6 mps 753 mmHg 22%
    14:00 +29°C° 0 mm 6 mps 753 mmHg 22%
    15:00 +30°C° 0 mm 6 mps 752 mmHg 21%
    16:00 +29°C° 0 mm 6 mps 752 mmHg 22%
    17:00 +28°C° 0 mm 6 mps 752 mmHg 23%
    18:00 +28°C° 0 mm 6 mps 752 mmHg 23%
    19:00 +26°C° 0 mm 5 mps 752 mmHg 26%
    20:00 +23°C° 0 mm 5 mps 752 mmHg 28%
    21:00 +21°C° 0 mm 4 mps 752 mmHg 31%
    22:00 +20°C° 0 mm 4 mps 752 mmHg 32%
    23:00 +20°C° 0 mm 4 mps 752 mmHg 33%

    25 August, Saturday

    Time Temperature Precipitation Wind Pressure Humidity
    00:00 +19°C° 0 mm 4 mps 752 mmHg 35%
    01:00 +19°C° 0 mm 4 mps 752 mmHg 36%
    02:00 +18°C° 0 mm 4 mps 752 mmHg 37%
    03:00 +18°C° 0 mm 4 mps 752 mmHg 39%
    04:00 +17°C° 0 mm 4 mps 752 mmHg 39%
    05:00 +17°C° 0 mm 4 mps 752 mmHg 40%
    06:00 +17°C° 0 mm 4 mps 752 mmHg 40%
    07:00 +19°C° 0 mm 5 mps 752 mmHg 37%
    08:00 +22°C° 0 mm 6 mps 752 mmHg 33%
    09:00 +24°C° 0 mm 6 mps 752 mmHg 29%
    10:00 +26°C° 0 mm 6 mps 752 mmHg 26%
    11:00 +28°C° 0 mm 6 mps 751 mmHg 23%
    12:00 +29°C° 0 mm 6 mps 751 mmHg 20%
    13:00 +29°C° 0 mm 6 mps 751 mmHg 19%
    14:00 +30°C° 0 mm 6 mps 750 mmHg 18%
    15:00 +30°C° 0 mm 6 mps 750 mmHg 18%
    16:00 +30°C° 0 mm 6 mps 750 mmHg 18%
    17:00 +29°C° 0 mm 6 mps 750 mmHg 18%
    18:00 +29°C° 0 mm 5 mps 749 mmHg 19%
    19:00 +27°C° 0 mm 5 mps 749 mmHg 21%
    20:00 +25°C° 0 mm 4 mps 749 mmHg 23%
    21:00 +22°C° 0 mm 4 mps 749 mmHg 25%
    22:00 +21°C° 0 mm 4 mps 749 mmHg 26%
    23:00 +21°C° 0 mm 4 mps 749 mmHg 27%
    Show more